STARLINK-1693

decayed
NORAD ID: 46543 Int'l Des: 2020-070 Owner: SPXS Country: US Constellation: starlink
LEOCIRCULAR
グループ

STARLINK-1693について

説明を読み込み中...

高度履歴

Altitude vs Time

uPlot chart will show altitude changes over time

軌道要素

1 46543U 20070M 25228.32191575 .15503843 12579-4 40746-3 0 9994
2 46543 53.0175 288.5036 0006112 309.3762 100.5231 16.45417673269831
Epoch: Aug 16, 2025 • Age: 735 hours

現在のステータス

Position data unavailable
打ち上げ日 Oct 6, 2020
運用期間 4.9 years
落下予定日 Aug 16, 2025
タイプ internet

技術仕様

分類 Payload
質量 260.00 kg
乾燥質量 248.00 kg
総質量 260.00 kg
長さ 0.20 m
直径 2.80 m
スパン 9.00 m
形状 Box + pan
製造者 SPXS
バスタイプ Starlink
フェーズステータス Unknown Transfer Status
所有者/国 SPXS/US

大規模コンステレーション

Loading constellations...